الصفحة الرئيسية
METAR-TAF:

METAR-TAF

مطار :

Elkhart-Morton County Airport

Elkhart, كانساس, الولايات المتحدة

دائرة عرض: 37-00N, خط طول: 101-54W, ارتفاع: 1099 متر

مراقبة الطقس الحالي

تاريخ ووقت الإصدار 9 دقيقة قبل الساعة 02:15UTC
ريح 7 عقدة من الجنوب الشرقي
درجة الحرارة 28°درجة مئوية
الرطوبة 55%
ضغط 1018 hPa
الرؤية: 16.1 كم
سماء صافية

METAR: KEHA 160215Z AUTO 13007KT 10SM CLR 28/18 A3006 RMK AO2 T02760183

زمن: 21:24 (02:24 UTC)


TAF: مفقودة

أرصاد الطقس والتوقعات من أكثر من 4000 مطار (تقارير الطقس للمطار METAR والتنبؤ بالطقس بالمطارTAF).

المحطات المتاحة هي النقط الصفراء والحمراء على الخريطة.

حرك المؤشر فوق النقطة لمعرفة اسم المحطة.

ثم انقر لمعرفة أرصاد وتوقعات الطقس.

لتغيير الخارطة: اضغط على الأزرار الخضراء مع رمز الصليب الأسود للتكبير. على الزر الأخضر مع شرطة للتصغير، أو على الأسهم الخضراء للخرائط المجاورة.


METAR-TAF: